Latest Coastal Weather Observations for Kingfish B

IDV60701

Issued at 4:41 pm EST Tuesday 21 April 2015 (issued every 10 minutes, with the page automatically refreshed every 10 minutes)

About coastal observations | Map of coastal stations | Coastal observations for VIC | Marine services | Other Formats
Station Details ID: 400139 Name: KINGFISH B (PLATFORM) Lat: -38.60 Lon: 148.19 Height: 31.4 m
Data from the previous 72 hours. | See also: Recent months for locations in Victoria
Date/Time
EST
Temp

°C
Wind Pressure Rain
since 9am
mm
Weather Cloud Vis
km
Sea
Height
m
Swell
Dir
 
Speed
knots
Gust
knots
hPa Trend Height
m
Period
s
Dir
21/03:30pm 15.7 SE 8 12 1029.7 - - - - - - - - -
21/03:20pm 15.6 ESE 8 11 1029.7 - - - - - - - - -
21/03:10pm 15.6 SE 8 10 1029.8 - - - - - - - - -
21/03:00pm 15.6 SE 7 11 1029.8 - - - - - - - - -
21/02:50pm 15.6 ESE 8 11 1029.8 - - - - - - - - -
21/02:40pm 15.6 ESE 8 11 1029.8 - - - - - - - - -
21/02:30pm 15.6 ESE 8 11 1030.0 - - - - - - - - -
21/02:20pm 15.5 SE 8 12 1030.1 - - - - - - - - -
21/02:10pm 15.5 ESE 8 12 1030.0 - - - - - - - - -
21/02:00pm 15.4 SE 8 12 1030.0 - - - - - - - - -
21/01:50pm 15.4 SE 9 13 1029.9 - - - - - - - - -
21/01:40pm 15.3 SE 8 14 1030.0 - - - - - - - - -
21/01:30pm 15.3 SE 7 11 1030.0 - - - - - - - - -
21/01:20pm 15.2 ESE 7 10 1030.0 - - - - - - - - -
21/01:10pm 15.2 SE 7 9 1030.2 - - - - - - - - -
21/01:00pm 15.2 SE 6 10 1030.3 - - - - - - - - -
21/12:50pm 15.1 SE 7 9 1030.4 - - - - - - - - -
21/12:40pm 15.1 SE 6 9 1030.4 - - - - - - - - -
21/12:30pm 15.1 ESE 5 8 1030.5 - - - - - - - - -
21/12:20pm 15.1 ESE 5 9 1030.5 - - - - - - - - -
21/12:10pm 15.1 ESE 6 10 1030.6 - - - - - - - - -
21/11:50am 15.1 ESE 7 11 1030.9 - - - - - - - - -
21/11:40am 15.0 SE 8 10 1031.0 - - - - - - - - -
21/11:30am 15.0 SE 7 11 1031.1 - - - - - - - - -
21/11:20am 15.0 ESE 7 11 1031.1 - - - - - - - - -
21/11:10am 15.0 SE 8 11 1031.2 - - - - - - - - -
21/11:00am 14.9 ESE 8 12 1031.3 - - - - - - - - -
21/10:50am 14.8 SE 10 14 1031.4 - - - - - - - - -
21/10:40am 14.9 SE 8 12 1031.5 - - - - - - - - -
21/10:30am 14.8 ESE 7 11 1031.7 - - - - - - - - -
21/10:20am 14.8 ESE 7 11 1031.8 - - - - - - - - -
21/10:10am 14.7 ESE 6 10 1031.9 - - - - - - - - -
21/10:00am 14.7 ESE 8 12 1032.0 - - - - - - - - -
21/09:50am 14.6 SE 7 12 1032.1 - - - - - - - - -
21/09:40am 14.6 SE 8 12 1032.1 - - - - - - - - -
21/09:30am 14.6 SE 8 12 1032.3 - - - - - - - - -
21/09:20am 14.6 ESE 7 10 1032.3 - - - - - - - - -
21/09:10am 14.6 ESE 7 12 1032.3 - - - - - - - - -
21/09:00am 14.6 SE 7 10 1032.5 - - - - - - - - -
21/08:50am 14.6 ESE 7 12 1032.5 - - - - - - - - -
21/08:40am 14.6 SE 9 12 1032.5 - - - - - - - - -
21/08:30am 14.6 SE 8 11 1032.6 - - - - - - - - -
21/08:20am 14.7 ESE 8 12 1032.7 - - - - - - - - -
21/08:10am 14.7 ESE 7 11 1032.7 - - - - - - - - -
21/08:00am 14.7 ESE 7 12 1032.8 - - - - - - - - -
21/07:50am 14.6 ESE 8 12 1032.8 - - - - - - - - -
21/07:40am 14.6 ESE 8 13 1032.8 - - - - - - - - -
21/07:30am 14.6 SE 9 14 1032.8 - - - - - - - - -
21/07:20am 14.6 SE 9 15 1032.8 - - - - - - - - -
21/07:10am 14.6 SE 9 13 1032.7 - - - - - - - - -
21/07:00am 14.6 SE 9 12 1032.7 - - - - - - - - -
21/06:50am 14.6 SE 8 11 1032.7 - - - - - - - - -
21/06:40am 14.5 SE 8 13 1032.6 - - - - - - - - -
21/06:30am 14.4 SE 9 13 1032.6 - - - - - - - - -
21/06:20am 14.5 SE 9 13 1032.6 - - - - - - - - -
21/06:10am 14.4 SE 8 12 1032.6 - - - - - - - - -
21/06:00am 14.3 SE 9 13 1032.6 - - - - - - - - -
21/05:50am 14.2 SE 9 13 1032.5 - - - - - - - - -
21/05:40am 14.2 SE 10 13 1032.6 - - - - - - - - -
21/05:30am 14.2 SE 8 13 1032.6 - - - - - - - - -
21/05:20am 14.2 SE 9 12 1032.6 - - - - - - - - -
21/05:10am 14.2 SE 8 12 1032.7 - - - - - - - - -
21/05:00am 14.2 SE 8 11 1032.6 - - - - - - - - -
21/04:50am 14.2 SE 8 11 1032.5 - - - - - - - - -
21/04:40am 14.2 SE 8 11 1032.5 - - - - - - - - -
21/04:30am 14.2 SE 8 12 1032.4 - - - - - - - - -
21/04:20am 14.2 SE 8 11 1032.3 - - - - - - - - -
21/04:10am 14.2 SE 8 10 1032.2 - - - - - - - - -
21/04:00am 14.2 SE 8 12 1032.0 - - - - - - - - -
21/03:50am 14.1 SE 8 12 1032.0 - - - - - - - - -
21/03:40am 14.2 SE 8 12 1031.9 - - - - - - - - -
21/03:30am 14.2 SSE 7 10 1031.9 - - - - - - - - -
21/03:20am 14.1 SSE 7 10 1032.0 - - - - - - - - -
21/03:10am 14.1 SE 7 11 1032.0 - - - - - - - - -
21/03:00am 14.2 SE 7 10 1032.0 - - - - - - - - -
21/02:50am 14.1 SE 6 9 1032.0 - - - - - - - - -
21/02:40am 14.1 SE 7 10 1032.0 - - - - - - - - -
21/02:30am 14.1 SE 7 10 1031.9 - - - - - - - - -
21/02:20am 14.0 SE 6 11 1032.0 - - - - - - - - -
21/02:10am 14.0 SE 6 9 1032.0 - - - - - - - - -
21/02:00am 14.0 SE 7 10 1032.0 - - - - - - - - -
21/01:50am 14.0 SE 6 10 1032.2 - - - - - - - - -
21/01:40am 14.0 SSE 7 11 1032.4 - - - - - - - - -
21/01:30am 14.0 SSE 7 11 1032.4 - - - - - - - - -
21/01:20am 14.0 SSE 6 10 1032.6 - - - - - - - - -
21/01:10am 14.0 SSE 7 10 1032.7 - - - - - - - - -
21/01:00am 14.0 SE 6 9 1032.8 - - - - - - - - -
21/12:50am 14.0 SE 5 8 1033.0 - - - - - - - - -
21/12:40am 14.0 SSE 6 9 1033.2 - - - - - - - - -
21/12:30am 14.0 SE 7 10 1033.3 - - - - - - - - -
21/12:20am 14.0 SE 5 8 1033.5 - - - - - - - - -
21/12:10am 14.0 SE 6 9 1033.6 - - - - - - - - -
21/12:00am 14.0 SE 5 9 1033.6 - - - - - - - - -
 
Date/Time
EST
Temp

°C
Wind Pressure Rain
since 9am
mm
Weather Cloud Vis
km
Sea
Height
m
Swell
Dir
 
Speed
knots
Gust
knots
hPa Trend Height
m
Period
s
Dir
20/11:50pm 14.0 SE 6 10 1033.7 - - - - - - - - -
20/11:40pm 13.9 ESE 5 9 1033.8 - - - - - - - - -
20/11:30pm 14.0 SE 5 10 1033.9 - - - - - - - - -
20/11:20pm 14.0 SE 5 9 1033.9 - - - - - - - - -
20/11:10pm 14.0 SE 6 9 1033.9 - - - - - - - - -
20/11:00pm 14.1 SE 6 9 1033.9 - - - - - - - - -
20/10:50pm 14.1 SE 7 11 1033.9 - - - - - - - - -
20/10:40pm 14.1 SE 6 9 1034.0 - - - - - - - - -
20/10:30pm 14.1 SE 7 10 1034.1 - - - - - - - - -
20/10:10pm 14.1 SSE 9 12 1034.0 - - - - - - - - -
20/10:00pm 14.1 SSE 9 13 1034.0 - - - - - - - - -
20/09:50pm 14.1 SSE 9 13 1034.1 - - - - - - - - -
20/09:40pm 14.1 SSE 10 12 1034.2 - - - - - - - - -
20/09:30pm 14.2 SSE 9 13 1034.3 - - - - - - - - -
20/09:20pm 14.1 SSE 9 12 1034.3 - - - - - - - - -
20/09:10pm 14.1 SE 9 13 1034.4 - - - - - - - - -
20/09:00pm 14.1 SE 8 14 1034.6 - - - - - - - - -
20/08:50pm 14.1 SE 8 12 1034.6 - - - - - - - - -
20/08:40pm 14.1 SE 7 12 1034.7 - - - - - - - - -
20/08:30pm 14.1 SE 7 10 1034.7 - - - - - - - - -
20/08:20pm 14.1 SE 8 10 1034.7 - - - - - - - - -
20/08:10pm 14.1 SSE 8 12 1034.8 - - - - - - - - -
20/08:00pm 14.1 SE 7 10 1034.7 - - - - - - - - -
20/07:50pm 14.1 SE 7 11 1034.7 - - - - - - - - -
20/07:40pm 14.1 SE 6 11 1034.7 - - - - - - - - -
20/07:30pm 14.1 SE 7 10 1034.8 - - - - - - - - -
20/07:20pm 14.1 SE 6 9 1034.8 - - - - - - - - -
20/07:10pm 14.1 SE 8 11 1034.9 - - - - - - - - -
20/07:00pm 14.1 SSE 7 11 1034.8 - - - - - - - - -
20/06:50pm 14.1 SSE 8 11 1034.7 - - - - - - - - -
20/06:40pm 14.1 SSE 7 11 1034.7 - - - - - - - - -
20/06:30pm 14.1 SSE 7 11 1034.6 - - - - - - - - -
20/06:20pm 14.1 SSE 8 10 1034.7 - - - - - - - - -
20/06:10pm 14.1 SSE 8 11 1034.8 - - - - - - - - -
20/06:00pm 14.1 SSE 9 13 1034.8 - - - - - - - - -
20/05:50pm 14.1 SSE 8 13 1034.7 - - - - - - - - -
20/05:40pm 14.0 SSE 8 12 1034.7 - - - - - - - - -
20/05:30pm 14.1 SSE 9 11 1034.7 - - - - - - - - -
20/05:20pm 14.1 SSE 10 12 1034.6 - - - - - - - - -
20/05:10pm 14.1 SSE 10 13 1034.5 - - - - - - - - -
20/05:00pm 14.2 SSE 10 13 1034.4 - - - - - - - - -
20/04:50pm 14.2 SE 9 12 1034.3 - - - - - - - - -
20/04:40pm 14.2 SSE 10 14 1034.3 - - - - - - - - -
20/04:30pm 14.2 SE 9 12 1034.2 - - - - - - - - -
20/04:20pm 14.2 SSE 10 15 1034.3 - - - - - - - - -
20/04:10pm 14.2 SSE 9 13 1034.3 - - - - - - - - -
20/04:00pm 14.1 SSE 10 15 1034.2 - - - - - - - - -
20/03:50pm 14.2 SSE 11 15 1034.1 - - - - - - - - -
20/03:40pm 14.1 SSE 11 14 1034.1 - - - - - - - - -
20/03:30pm 14.0 SSE 8 16 1033.9 - - - - - - - - -
20/03:20pm 13.7 SE 6 9 1033.8 - - - - - - - - -
20/03:10pm 13.4 SSE 9 14 1033.9 - - - - - - - - -
20/03:00pm 13.5 SSE 12 17 1034.1 - - - - - - - - -
20/02:50pm 13.7 SSE 12 18 1034.0 - - - - - - - - -
20/02:40pm 14.1 SE 11 19 1034.0 - - - - - - - - -
20/02:30pm 14.2 SSE 12 18 1034.1 - - - - - - - - -
20/02:20pm 14.2 SSE 11 16 1034.2 - - - - - - - - -
20/02:10pm 14.3 SSE 11 18 1034.2 - - - - - - - - -
20/02:00pm 14.3 SSE 11 17 1034.2 - - - - - - - - -
20/01:50pm 14.2 SE 11 14 1034.1 - - - - - - - - -
20/01:40pm 14.2 SE 11 15 1034.1 - - - - - - - - -
20/01:30pm 14.2 SSE 11 14 1034.2 - - - - - - - - -
20/01:20pm 14.0 SSE 12 16 1034.3 - - - - - - - - -
20/01:10pm 14.0 SSE 13 16 1034.3 - - - - - - - - -
20/01:00pm 14.0 SSE 13 18 1034.3 - - - - - - - - -
20/12:50pm 13.8 SSE 14 17 1034.4 - - - - - - - - -
20/12:40pm 13.8 SE 12 16 1034.3 - - - - - - - - -
20/12:30pm 13.6 SE 15 20 1034.4 - - - - - - - - -
20/12:20pm 13.6 SE 14 19 1034.5 - - - - - - - - -
20/12:10pm 13.5 SE 16 21 1034.7 - - - - - - - - -
20/12:00pm 13.5 SSE 13 19 1034.7 - - - - - - - - -
20/11:50am 13.4 SSE 13 16 1034.9 - - - - - - - - -
20/11:40am 13.3 SSE 11 18 1035.1 - - - - - - - - -
20/11:30am 13.2 SSE 11 13 1035.2 - - - - - - - - -
20/11:20am 13.1 SSE 9 12 1035.3 - - - - - - - - -
20/11:10am 13.0 SSE 12 18 1035.5 - - - - - - - - -
20/11:00am 13.0 SSE 14 17 1035.7 - - - - - - - - -
20/10:50am 13.3 SSE 12 19 1035.7 - - - - - - - - -
20/10:30am 13.7 S 12 16 1035.9 - - - - - - - - -
20/10:20am 14.0 SSE 12 17 1035.8 - - - - - - - - -
20/10:10am 13.9 SSE 14 19 1035.9 - - - - - - - - -
20/10:00am 14.1 SSE 14 18 1035.9 - - - - - - - - -
20/09:50am 14.3 SE 12 16 1035.8 - - - - - - - - -
20/09:40am 14.2 SE 13 18 1035.8 - - - - - - - - -
20/09:30am 14.3 SE 14 19 1035.8 - - - - - - - - -
20/09:20am 14.4 SE 13 16 1035.7 - - - - - - - - -
20/09:10am 14.2 SE 12 16 1035.6 - - - - - - - - -
20/09:00am 14.0 ESE 3 11 1035.6 - - - - - - - - -
20/08:50am 13.8 NE 9 14 1035.4 - - - - - - - - -
20/08:40am 13.5 ENE 9 18 1035.4 - - - - - - - - -
20/08:30am 13.6 E 15 21 1035.4 - - - - - - - - -
20/08:20am 14.2 ESE 11 17 1035.5 - - - - - - - - -
20/08:10am 14.1 SE 13 17 1035.6 - - - - - - - - -
20/08:00am 14.1 SE 13 17 1035.6 - - - - - - - - -
20/07:50am 14.1 SE 14 19 1035.5 - - - - - - - - -
20/07:40am 14.2 SE 12 17 1035.5 - - - - - - - - -
20/07:30am 14.1 SE 12 17 1035.5 - - - - - - - - -
20/07:20am 13.7 SSE 12 18 1035.5 - - - - - - - - -
20/07:10am 13.6 SSE 14 19 1035.6 - - - - - - - - -
20/07:00am 13.5 SSE 17 22 1035.5 - - - - - - - - -
20/06:50am 13.6 SSE 17 22 1035.5 - - - - - - - - -
20/06:40am 13.6 SSE 16 21 1035.3 - - - - - - - - -
20/06:30am 13.6 SSE 17 22 1035.3 - - - - - - - - -
20/06:20am 14.0 SE 16 20 1035.0 - - - - - - - - -
20/06:10am 13.9 SSE 13 19 1034.8 - - - - - - - - -
20/06:00am 13.7 S 14 18 1034.9 - - - - - - - - -
20/05:50am 13.4 S 16 20 1035.0 - - - - - - - - -
20/05:40am 13.3 S 16 21 1035.0 - - - - - - - - -
20/05:30am 13.1 SSE 17 21 1034.9 - - - - - - - - -
20/05:20am 13.2 SSE 18 22 1034.8 - - - - - - - - -
20/05:10am 13.3 SSE 17 20 1034.6 - - - - - - - - -
20/05:00am 13.3 SSE 18 21 1034.5 - - - - - - - - -
20/04:50am 13.6 SSE 19 24 1034.4 - - - - - - - - -
20/04:40am 13.9 SSE 16 24 1034.0 - - - - - - - - -
20/04:30am 13.8 SSE 17 21 1033.9 - - - - - - - - -
20/04:20am 13.8 SE 17 22 1033.8 - - - - - - - - -
20/04:10am 13.9 SSE 16 22 1033.8 - - - - - - - - -
20/04:00am 13.9 SSE 13 18 1033.6 - - - - - - - - -
20/03:50am 13.8 SSE 15 19 1033.5 - - - - - - - - -
20/03:40am 13.8 SE 15 21 1033.3 - - - - - - - - -
20/03:30am 13.7 SE 17 22 1033.2 - - - - - - - - -
20/03:20am 13.7 SE 17 22 1033.1 - - - - - - - - -
20/03:10am 13.7 SE 17 21 1033.1 - - - - - - - - -
20/03:00am 13.8 SSE 16 21 1033.0 - - - - - - - - -
20/02:50am 13.8 SSE 15 22 1032.9 - - - - - - - - -
20/02:40am 13.8 SSE 15 21 1032.8 - - - - - - - - -
20/02:30am 13.8 SSE 14 19 1032.9 - - - - - - - - -
20/02:20am 13.8 SSE 16 21 1032.8 - - - - - - - - -
20/02:10am 13.8 SE 17 22 1032.8 - - - - - - - - -
20/02:00am 13.8 SSE 15 20 1032.9 - - - - - - - - -
20/01:50am 13.8 SE 16 21 1032.9 - - - - - - - - -
20/01:40am 14.0 SE 15 20 1032.8 - - - - - - - - -
20/01:30am 14.0 SSE 14 19 1032.9 - - - - - - - - -
20/01:20am 14.0 SSE 14 18 1033.0 - - - - - - - - -
20/01:10am 14.1 SSE 14 18 1032.9 - - - - - - - - -
20/01:00am 14.1 SSE 13 17 1032.9 - - - - - - - - -
20/12:50am 14.1 SE 15 21 1032.9 - - - - - - - - -
20/12:40am 14.1 SSE 14 20 1033.0 - - - - - - - - -
20/12:30am 14.1 SSE 15 20 1033.0 - - - - - - - - -
20/12:20am 14.1 SSE 14 19 1033.0 - - - - - - - - -
20/12:10am 14.1 SSE 14 19 1033.0 - - - - - - - - -
20/12:00am 14.0 SE 14 19 1033.1 - - - - - - - - -
 
Date/Time
EST
Temp

°C
Wind Pressure Rain
since 9am
mm
Weather Cloud Vis
km
Sea
Height
m
Swell
Dir
 
Speed
knots
Gust
knots
hPa Trend Height
m
Period
s
Dir
19/11:50pm 14.0 SE 15 22 1033.1 - - - - - - - - -
19/11:40pm 13.9 SE 15 19 1033.0 - - - - - - - - -
19/11:30pm 13.9 SE 15 20 1033.0 - - - - - - - - -
19/11:20pm 13.9 SE 15 19 1033.0 - - - - - - - - -
19/11:10pm 13.8 SSE 14 20 1033.1 - - - - - - - - -
19/11:00pm 13.7 SSE 16 20 1033.1 - - - - - - - - -
19/10:50pm 13.7 SSE 17 22 1033.1 - - - - - - - - -
19/10:40pm 13.7 SE 15 21 1033.0 - - - - - - - - -
19/10:30pm 13.6 SE 16 21 1033.1 - - - - - - - - -
19/10:20pm 13.6 SE 17 23 1033.0 - - - - - - - - -
19/10:10pm 13.6 SSE 16 21 1032.9 - - - - - - - - -
19/10:00pm 13.6 SE 17 23 1032.8 - - - - - - - - -
19/09:50pm 13.1 SSE 8 20 1032.7 - - - - - - - - -
19/09:40pm 12.7 SSW 7 9 1032.7 - - - - - - - - -
19/09:30pm 12.7 S 11 21 1032.8 - - - - - - - - -
19/09:20pm 12.6 S 10 14 1032.8 - - - - - - - - -
19/09:10pm 12.3 SSE 4 13 1032.6 - - - - - - - - -
19/09:00pm 12.1 SE 6 13 1032.5 - - - - - - - - -
19/08:50pm 11.7 SE 19 35 1032.7 - - - - - - - - -
19/08:40pm 12.1 SE 26 36 1032.7 - - - - - - - - -
19/08:30pm 12.5 SSE 23 30 1032.7 - - - - - - - - -
19/08:20pm 12.8 SSE 10 19 1032.1 - - - - - - - - -
19/08:10pm 12.6 SSE 11 14 1031.9 - - - - - - - - -
19/08:00pm 12.5 SSE 13 18 1031.9 - - - - - - - - -
19/07:40pm 12.6 SSE 15 18 1031.9 - - - - - - - - -
19/07:30pm 12.4 SSE 17 21 1031.9 - - - - - - - - -
19/07:20pm 12.4 SSE 20 25 1031.8 - - - - - - - - -
19/07:10pm 12.5 SSE 22 28 1031.7 - - - - - - - - -
19/07:00pm 12.6 SSE 19 23 1031.4 - - - - - - - - -
19/06:50pm 13.2 SSE 19 26 1031.1 - - - - - - - - -
19/06:40pm 13.4 SSE 15 20 1030.6 - - - - - - - - -
19/06:30pm 13.4 SSE 14 17 1030.5 - - - - - - - - -
19/06:20pm 13.4 SSE 15 20 1030.4 - - - - - - - - -
19/06:10pm 13.6 SSE 14 19 1030.1 - - - - - - - - -
19/06:00pm 13.7 SSE 16 20 1030.0 - - - - - - - - -
19/05:50pm 13.8 SSE 17 22 1029.9 - - - - - - - - -
19/05:40pm 13.9 SSE 15 23 1029.7 - - - - - - - - -
19/05:30pm 13.6 SSE 15 19 1029.4 - - - - - - - - -
19/05:20pm 12.2 S 5 16 1028.9 - - - - - - - - -
19/05:10pm 12.6 S 7 19 1029.0 - - - - - - - - -
19/05:00pm 12.6 SSE 13 18 1029.0 - - - - - - - - -
19/04:50pm 12.7 SSE 14 20 1028.9 - - - - - - - - -
19/04:40pm 12.8 SSE 11 16 1028.6 - - - - - - - - -
19/04:30pm 12.9 SE 13 18 1028.4 - - - - - - - - -
19/04:20pm 12.8 SE 17 21 1028.2 - - - - - - - - -
19/04:10pm 12.5 SE 17 21 1027.9 - - - - - - - - -
19/04:00pm 12.7 SE 18 22 1027.8 - - - - - - - - -
19/03:50pm 12.8 SSE 17 23 1027.7 - - - - - - - - -
19/03:40pm 12.1 SSE 14 19 1027.5 - - - - - - - - -
19/03:30pm 11.8 SSE 19 29 1027.7 - - - - - - - - -
19/03:20pm 13.7 S 19 28 1027.6 - - - - - - - - -
19/03:10pm 14.0 S 21 27 1027.4 - - - - - - - - -
19/03:00pm 14.1 SSE 18 24 1027.0 - - - - - - - - -
19/02:50pm 14.0 SSE 19 24 1026.7 - - - - - - - - -
19/02:40pm 14.0 SSE 17 22 1026.4 - - - - - - - - -
19/02:30pm 14.0 SSE 19 24 1026.2 - - - - - - - - -
19/02:20pm 14.0 SSE 18 22 1026.2 - - - - - - - - -
19/02:10pm 14.0 SSE 17 24 1026.0 - - - - - - - - -
19/02:00pm 14.0 SSE 18 25 1025.9 - - - - - - - - -
19/01:50pm 14.0 SSE 18 23 1025.8 - - - - - - - - -
19/01:40pm 14.1 SSE 17 22 1025.8 - - - - - - - - -
19/01:30pm 14.1 SSE 19 27 1025.6 - - - - - - - - -
19/01:20pm 14.0 SSE 19 25 1025.2 - - - - - - - - -
19/01:10pm 14.1 SSE 18 23 1025.0 - - - - - - - - -
19/01:00pm 14.2 SSE 18 23 1025.0 - - - - - - - - -
19/12:50pm 14.3 SSE 17 23 1024.9 - - - - - - - - -
19/12:40pm 14.3 SSE 17 22 1024.8 - - - - - - - - -
19/12:30pm 14.3 SSE 18 23 1024.7 - - - - - - - - -
19/12:20pm 14.3 SSE 19 23 1024.5 - - - - - - - - -
19/12:10pm 14.3 SSE 20 25 1024.3 - - - - - - - - -
19/12:00pm 14.3 SSE 18 24 1024.2 - - - - - - - - -
19/11:50am 14.4 SSE 19 23 1024.2 - - - - - - - - -
19/11:40am 14.6 SSE 18 23 1024.1 - - - - - - - - -
19/11:30am 14.6 SSE 17 22 1023.9 - - - - - - - - -
19/11:20am 14.6 SSE 17 21 1023.9 - - - - - - - - -
19/11:10am 14.6 SSE 17 21 1023.9 - - - - - - - - -
19/11:00am 14.5 SSE 17 21 1023.8 - - - - - - - - -
19/10:50am 14.5 SSE 17 22 1023.7 - - - - - - - - -
19/10:40am 14.5 SSE 18 25 1023.6 - - - - - - - - -
19/10:30am 14.6 SSE 18 24 1023.5 - - - - - - - - -
19/10:20am 14.8 S 20 26 1023.5 - - - - - - - - -
19/10:10am 15.0 S 20 25 1023.5 - - - - - - - - -
19/10:00am 15.2 S 20 25 1023.4 - - - - - - - - -
19/09:50am 16.0 SSW 19 24 1023.2 - - - - - - - - -
19/09:40am 15.9 SSW 19 24 1023.0 - - - - - - - - -
19/09:30am 16.0 SSW 19 23 1022.9 - - - - - - - - -
19/09:20am 16.0 SSW 20 25 1022.7 - - - - - - - - -
19/09:10am 15.9 SSW 20 23 1022.6 - - - - - - - - -
19/08:50am 15.5 SSW 22 26 1022.6 - - - - - - - - -
19/08:40am 15.7 SSW 22 26 1022.3 - - - - - - - - -
19/08:30am 15.8 SSW 21 26 1022.1 - - - - - - - - -
19/08:20am 15.7 SSW 22 26 1022.0 - - - - - - - - -
19/08:10am 15.8 SSW 22 27 1021.9 - - - - - - - - -
19/08:00am 15.7 SSW 22 26 1021.5 - - - - - - - - -
19/07:50am 15.7 SSW 22 27 1021.6 - - - - - - - - -
19/07:40am 16.1 SSW 23 27 1021.1 - - - - - - - - -
19/07:20am 16.2 SSW 23 27 1020.5 - - - - - - - - -
19/07:10am 15.7 SSW 23 27 1020.4 - - - - - - - - -
19/07:00am 15.3 SSW 23 29 1020.2 - - - - - - - - -
19/06:50am 15.3 SSW 22 27 1020.0 - - - - - - - - -
19/06:40am 15.2 SSW 21 25 1019.8 - - - - - - - - -
19/06:30am 15.0 SSW 21 32 1019.5 - - - - - - - - -
19/06:20am 15.3 SSW 24 30 1019.3 - - - - - - - - -
19/06:10am 15.0 SSW 22 27 1019.1 - - - - - - - - -
19/06:00am 15.0 SSW 22 27 1018.8 - - - - - - - - -
19/05:50am 14.9 SW 22 25 1018.0 - - - - - - - - -
19/05:40am 14.8 SW 21 26 1017.8 - - - - - - - - -
19/05:30am 14.5 SW 21 25 1017.3 - - - - - - - - -
19/05:20am 14.6 SW 21 25 1017.1 - - - - - - - - -
19/05:10am 14.7 SW 23 27 1017.2 - - - - - - - - -
19/05:00am 14.6 SW 22 28 1017.0 - - - - - - - - -
19/04:50am 14.5 SW 21 25 1016.8 - - - - - - - - -
19/04:40am 14.3 SW 22 26 1016.6 - - - - - - - - -
19/04:30am 14.3 SW 24 28 1016.1 - - - - - - - - -
19/04:20am 14.2 SW 23 29 1016.1 - - - - - - - - -
19/04:10am 14.0 SW 25 29 1016.0 - - - - - - - - -
19/04:00am 13.8 SW 22 27 1015.8 - - - - - - - - -
19/03:50am 13.4 SW 19 26 1016.0 - - - - - - - - -
19/03:40am 13.2 SW 21 30 1015.7 - - - - - - - - -
19/03:30am 12.9 SW 9 13 1016.0 - - - - - - - - -
19/03:20am 12.7 SSW 9 14 1016.2 - - - - - - - - -
19/03:10am 13.2 SW 15 24 1016.1 - - - - - - - - -
19/03:00am 13.5 SW 23 32 1015.7 - - - - - - - - -
19/02:50am 13.5 SW 15 20 1015.6 - - - - - - - - -
19/02:40am 14.2 SW 21 26 1015.3 - - - - - - - - -
19/02:30am 14.5 SW 23 28 1014.9 - - - - - - - - -
19/02:20am 14.9 WSW 21 24 1014.9 - - - - - - - - -
19/02:10am 14.9 SW 21 27 1014.7 - - - - - - - - -
19/02:00am 14.7 SW 20 24 1014.6 - - - - - - - - -
19/01:50am 14.7 WSW 21 25 1014.5 - - - - - - - - -
19/01:40am 14.3 SW 16 21 1014.7 - - - - - - - - -
19/01:30am 13.9 SW 16 20 1014.8 - - - - - - - - -
19/01:20am 13.7 SW 20 26 1015.0 - - - - - - - - -
19/01:10am 14.8 SW 25 32 1014.7 - - - - - - - - -
19/01:00am 15.0 WSW 18 22 1014.7 - - - - - - - - -
19/12:50am 15.0 WSW 20 24 1014.7 - - - - - - - - -
19/12:40am 15.0 SW 21 26 1014.5 - - - - - - - - -
19/12:30am 15.0 SW 19 24 1014.5 - - - - - - - - -
19/12:20am 15.1 SW 19 22 1014.4 - - - - - - - - -
19/12:10am 15.0 SW 19 24 1014.3 - - - - - - - - -
19/12:00am 15.1 SW 18 21 1014.3 - - - - - - - - -
 
Date/Time
EST
Temp

°C
Wind Pressure Rain
since 9am
mm
Weather Cloud Vis
km
Sea
Height
m
Swell
Dir
 
Speed
knots
Gust
knots
hPa Trend Height
m
Period
s
Dir
18/11:30pm 14.9 SW 22 25 1013.9 - - - - - - - - -
18/11:10pm 15.2 SW 24 27 1013.9 - - - - - - - - -
18/11:00pm 15.4 SW 24 27 1014.1 - - - - - - - - -
18/10:50pm 15.6 SW 24 29 1013.8 - - - - - - - - -
18/10:40pm 15.5 SW 23 26 1013.8 - - - - - - - - -
18/10:30pm 15.7 SW 23 27 1013.7 - - - - - - - - -
18/10:20pm 15.9 SW 22 28 1013.9 - - - - - - - - -
18/10:10pm 15.7 SW 25 29 1013.8 - - - - - - - - -
18/10:00pm 15.6 SSW 26 30 1013.9 - - - - - - - - -
18/09:40pm 16.0 SSW 26 30 1013.9 - - - - - - - - -
18/09:30pm 16.1 SSW 26 30 1013.8 - - - - - - - - -
18/09:20pm 16.1 SSW 26 31 1013.7 - - - - - - - - -
18/09:10pm 16.0 SSW 27 31 1013.8 - - - - - - - - -
18/09:00pm 16.5 SSW 25 30 1013.7 - - - - - - - - -
18/08:50pm 17.3 SSW 28 31 1013.5 - - - - - - - - -
18/08:40pm 18.1 SW 18 33 1012.2 - - - - - - - - -
18/08:30pm 17.8 WSW 9 13 1012.1 - - - - - - - - -
18/08:20pm 17.9 WSW 6 9 1012.1 - - - - - - - - -
18/08:10pm 18.0 W 5 8 1012.0 - - - - - - - - -
18/08:00pm 18.2 W 4 6 1011.8 - - - - - - - - -
18/07:50pm 18.1 W 5 7 1011.7 - - - - - - - - -
18/07:40pm 18.2 W 6 8 1011.8 - - - - - - - - -
18/07:30pm 18.1 W 7 9 1011.7 - - - - - - - - -
18/07:20pm 18.0 W 6 8 1011.7 - - - - - - - - -
18/07:10pm 18.0 W 6 8 1011.6 - - - - - - - - -
18/07:00pm 17.9 W 6 8 1011.6 - - - - - - - - -
18/06:50pm 17.8 W 6 7 1011.7 - - - - - - - - -
18/06:40pm 17.6 W 7 8 1011.8 - - - - - - - - -
18/06:30pm 17.6 W 8 10 1011.6 - - - - - - - - -
18/06:20pm 17.7 W 8 10 1011.5 - - - - - - - - -
18/06:10pm 17.7 WSW 8 11 1011.5 - - - - - - - - -
18/06:00pm 17.7 WSW 7 10 1011.6 - - - - - - - - -
18/05:50pm 17.8 WSW 9 10 1011.5 - - - - - - - - -
18/05:40pm 17.8 WSW 10 12 1011.3 - - - - - - - - -
18/05:30pm 17.8 WSW 9 11 1011.3 - - - - - - - - -
18/05:20pm 17.7 WSW 9 10 1011.2 - - - - - - - - -
18/05:10pm 17.8 WSW 8 10 1011.0 - - - - - - - - -
18/05:00pm 17.8 WSW 8 11 1011.0 - - - - - - - - -
18/04:50pm 17.8 WSW 9 11 1010.9 - - - - - - - - -

Other Formats:

Comma delimited format used in spreadsheet applications
http://www.bom.gov.au/fwo/IDV60701/IDV60701.55039.axf

JavaScript Object Notation format (JSON) in row-major order
http://www.bom.gov.au/fwo/IDV60701/IDV60701.55039.json